Location: Blankensee
(53.5126°N, 14.3055°E)
Time: 19:01:15
(UTC+00:00)

AQUA - Pass Details

Date: 08 August 2020
Orbit: 700 x 704 km, 98.2° (Epoch: 20 September)

Event Time Altitude Azimuth Distance (km) Brightness Sun altitude
Rises 01:18:22 0° 14° (NNE) 3,107 8.6 -15.1°
Reaches altitude 10° 01:20:38 10° 15° (NNE) 2,184 7.6 -14.9°
Maximum altitude 01:25:26 87° 287° (WNW) 712 3.8 -14.5°
Enters shadow 01:28:38 21° 198° (SSW) 1,552 5.0 -14.2°
